Location: Klein M�hlingen
(51.9472°N, 11.7453°E)
Time: 10:06:11
(UTC+00:00)

Cosmos 2173 Rocket - Pass Details

Date: 09 April 2020
Orbit: 945 x 1000 km, 83.0° (Epoch: 24 May)

Event Time Altitude Azimuth Distance (km) Brightness Sun altitude
Rises 22:17:37 0° 350° (N) 3,629 8.2 -28.8°
Reaches altitude 10° 22:20:07 10° 352° (N) 2,681 7.2 -28.9°
Maximum altitude 22:26:15 77° 79° (E) 982 3.9 -29.1°
Enters shadow 22:26:17 77° 81° (E) 982 3.9 -29.2°
